This is the latest recevied weather packets stored in our database for station/object DH1NAI-6. If no packets are shown the sender has not sent any weather packets the latest 10 day(s).
| Time | Temp. | Humidity | Pressure | Rain* | Wind** | Luminosity | Snow |
|---|---|---|---|---|---|---|---|
| 1778153424 | 8.89° C | 99% | 1009.9 hPa | 0 mm | - | 53 W/m² | - |
| 1778152816 | 8.89° C | 99% | 1010.2 hPa | 0 mm | - | 59 W/m² | - |
| 1778152208 | 8.89° C | 99% | 1009.8 hPa | 0 mm | - | 71 W/m² | - |
| 1778151600 | 8.89° C | 99% | 1009.7 hPa | 0 mm | - | 66 W/m² | - |
| 1778150992 | 9.44° C | 99% | 1009.7 hPa | 0 mm | - | 67 W/m² | - |
| 1778150384 | 8.89° C | 99% | 1009.7 hPa | 0 mm | - | 64 W/m² | - |
| 1778149776 | 9.44° C | 99% | 1009.8 hPa | 0 mm | - | 68 W/m² | - |
| 1778149168 | 8.89° C | 99% | 1009.8 hPa | 0 mm | - | 64 W/m² | - |
| 1778148560 | 9.44° C | 99% | 1009.6 hPa | 0 mm | - | 56 W/m² | - |
| 1778147953 | 9.44° C | 99% | 1009.4 hPa | 1.02 mm | - | 71 W/m² | - |
| 1778147344 | 9.44° C | 99% | 1009.3 hPa | 1.02 mm | - | 56 W/m² | - |
| 1778146736 | 9.44° C | 99% | 1009.1 hPa | 1.02 mm | - | 52 W/m² | - |
| 1778146113 | 8.89° C | 99% | 1009 hPa | 0 mm | - | 49 W/m² | - |
| 1778145504 | 8.89° C | 99% | 1009.1 hPa | 0 mm | - | 32 W/m² | - |
| 1778144880 | 8.89° C | 99% | 1009 hPa | 0 mm | - | 52 W/m² | - |
| 1778144256 | 9.44° C | 99% | 1008.6 hPa | 1.02 mm | - | 40 W/m² | - |
| 1778143649 | 9.44° C | 99% | 1008.6 hPa | 1.02 mm | - | 54 W/m² | - |
| 1778143040 | 8.89° C | 99% | 1008.6 hPa | 1.02 mm | - | 35 W/m² | - |
| 1778142416 | 8.89° C | 99% | 1008.4 hPa | 1.02 mm | - | 47 W/m² | - |
| 1778141793 | 8.33° C | 99% | 1008.1 hPa | 1.02 mm | - | 20 W/m² | - |
| 1778141189 | 8.89° C | 99% | 1008.2 hPa | 1.02 mm | - | 17 W/m² | - |
| 1778140577 | 8.33° C | 99% | 1008.2 hPa | 1.02 mm | - | 14 W/m² | - |
| 1778139968 | 8.89° C | 99% | 1007.9 hPa | 0 mm | - | 27 W/m² | - |
| 1778139361 | 9.44° C | 99% | 1007.9 hPa | 0 mm | - | 40 W/m² | - |
| 1778138752 | 9.44° C | 99% | 1007.7 hPa | 0 mm | - | 48 W/m² | - |
* Rain latest hour (hover to see other rain measurements)
** Current wind speed in m/s (hover to see current wind gust speed)